Location: Caltech
(34.1382°N, 118.1253°W)
Time: 13:39:16
(UTC-07:00)

PANSAT - Visible Passes

Search period start: 06 May 2016 00:00
Search period end: 16 May 2016 00:00
Orbit: 479 x 487 km, 28.5° (Epoch: 05 May)

Date Brightness Start Highest point End Pass type
(mag) Time Alt. Az. Time Alt. Az. Time Alt. Az.
06 May 9.9 04:23:24 12° SSE 04:23:38 12° SSE 04:25:17 10° SE visible
07 May 10.2 03:56:05 11° SE 03:56:05 11° SE 03:56:34 10° SE visible
08 May 8.8 05:02:57 15° SW 05:05:27 28° S 05:08:45 10° ESE visible
09 May 8.7 04:35:37 25° SSW 04:36:39 28° S 04:39:58 10° ESE visible
10 May 8.8 04:08:18 28° SSE 04:08:18 28° SSE 04:11:11 10° ESE visible
11 May 9.7 03:41:00 18° SE 03:41:00 18° SE 03:42:23 10° ESE visible
11 May 8.5 05:15:11 10° WSW 05:18:37 33° S 05:22:04 10° ESE visible
12 May 8.4 04:47:57 21° SW 04:49:48 33° S 04:53:16 10° ESE visible
13 May 8.3 04:20:47 33° SSW 04:21:00 33° S 04:24:28 10° ESE visible
14 May 9.2 03:53:43 24° SE 03:53:43 24° SE 03:55:39 10° ESE visible
15 May 10.4 03:26:47 10° ESE 03:26:47 10° ESE 03:26:49 10° ESE visible
15 May 9.1 05:01:00 14° SW 05:02:52 19° SSW 05:05:36 10° SSE visible
